GEFSMW_prec_meanprecacc_228.txt.gz
Total_Precipitation_Accumulation
0.95 1.13 1.43 1.78 2.08 2.25 2.54 2.68 2.92 3.12 3.17 3.09 2.79 2.49 2.31 2.25 2.10 1.84 1.62 1.58 1.54 1.44 1.47 1.49 1.32 1.18 1.15 1.06 0.91 0.86 0.86 0.92 0.98 0.95 0.80 0.66 0.58 0.50 0.44 0.39 0.34 0.29 0.25
0.77 0.95 1.30 1.50 1.72 1.97 2.16 2.45 2.53 2.82 2.86 2.77 2.73 2.57 2.49 2.43 2.33 2.15 1.87 1.72 1.68 1.58 1.49 1.44 1.38 1.24 1.17 1.18 1.16 1.07 1.00 0.95 0.98 1.05 1.03 0.85 0.72 0.56 0.44 0.42 0.41 0.36 0.34
0.58 0.74 1.05 1.34 1.44 1.68 1.97 2.11 2.22 2.45 2.70 2.74 2.85 2.93 2.87 2.62 2.36 2.20 2.10 1.93 1.82 1.75 1.63 1.51 1.46 1.39 1.25 1.16 1.20 1.25 1.23 1.21 1.19 1.16 1.28 1.16 0.88 0.67 0.50 0.42 0.41 0.40 0.40
0.50 0.59 0.70 0.96 1.18 1.35 1.71 2.02 2.19 2.32 2.52 2.82 2.81 2.70 2.56 2.35 2.09 2.09 2.15 2.13 2.01 1.90 1.76 1.68 1.60 1.52 1.43 1.32 1.30 1.31 1.37 1.43 1.40 1.36 1.27 1.19 1.02 0.96 0.75 0.50 0.42 0.41 0.38
0.55 0.55 0.58 0.72 0.92 1.11 1.44 1.75 2.00 2.27 2.46 2.60 2.64 2.67 2.46 2.26 2.21 2.13 2.11 2.03 1.94 1.88 1.80 1.74 1.74 1.66 1.58 1.53 1.55 1.51 1.49 1.52 1.53 1.48 1.41 1.36 1.22 1.08 1.03 0.78 0.57 0.54 0.48
0.55 0.53 0.55 0.64 0.81 0.93 1.14 1.46 1.71 1.85 2.09 2.35 2.40 2.42 2.40 2.37 2.32 2.10 2.00 2.01 1.99 1.91 1.79 1.79 1.80 1.81 1.76 1.68 1.64 1.66 1.68 1.67 1.65 1.63 1.51 1.44 1.38 1.23 1.22 1.10 0.84 0.77 0.68
0.45 0.46 0.51 0.59 0.73 0.87 0.99 1.14 1.33 1.46 1.62 1.84 1.98 2.02 2.14 2.26 2.19 2.05 1.87 1.83 1.81 1.76 1.70 1.68 1.76 1.83 1.80 1.79 1.77 1.76 1.73 1.75 1.77 1.75 1.68 1.57 1.46 1.39 1.42 1.43 1.22 1.02 0.84
0.44 0.42 0.42 0.49 0.61 0.72 0.86 0.96 1.06 1.18 1.34 1.49 1.62 1.75 1.87 2.05 2.07 2.04 1.82 1.67 1.60 1.59 1.67 1.61 1.55 1.59 1.68 1.71 1.71 1.69 1.66 1.66 1.65 1.63 1.61 1.59 1.48 1.48 1.54 1.62 1.71 1.60 1.27
0.42 0.40 0.40 0.42 0.52 0.58 0.68 0.80 0.92 1.01 1.11 1.26 1.42 1.56 1.63 1.71 1.79 1.87 1.84 1.67 1.57 1.53 1.53 1.48 1.41 1.34 1.36 1.45 1.54 1.53 1.51 1.53 1.53 1.51 1.49 1.51 1.47 1.48 1.54 1.65 1.84 2.05 1.86
0.41 0.38 0.40 0.44 0.50 0.52 0.55 0.66 0.83 0.88 0.92 1.02 1.15 1.28 1.39 1.53 1.61 1.65 1.63 1.55 1.50 1.48 1.44 1.36 1.27 1.21 1.19 1.19 1.27 1.29 1.28 1.32 1.32 1.34 1.36 1.35 1.34 1.39 1.45 1.52 1.61 1.78 1.89
0.42 0.42 0.45 0.53 0.57 0.53 0.55 0.63 0.73 0.84 0.90 0.93 1.00 1.07 1.09 1.18 1.33 1.45 1.47 1.46 1.42 1.38 1.35 1.29 1.23 1.18 1.11 1.07 1.06 1.05 1.09 1.16 1.17 1.20 1.22 1.18 1.15 1.22 1.25 1.31 1.38 1.47 1.59
0.38 0.43 0.51 0.53 0.56 0.58 0.61 0.65 0.69 0.77 0.88 0.91 0.94 1.00 1.01 1.01 1.09 1.19 1.31 1.39 1.46 1.36 1.31 1.26 1.20 1.13 1.09 1.05 1.02 0.99 0.97 1.01 1.06 1.09 1.14 1.12 1.08 1.10 1.13 1.18 1.18 1.19 1.23
0.37 0.38 0.46 0.51 0.53 0.58 0.68 0.71 0.75 0.77 0.79 0.83 0.85 0.87 0.88 0.87 0.91 0.97 1.09 1.17 1.28 1.28 1.23 1.23 1.16 1.06 1.02 1.00 0.97 0.93 0.93 0.94 0.94 0.97 1.05 1.10 1.12 1.13 1.13 1.13 1.12 1.11 1.13
0.34 0.36 0.41 0.46 0.51 0.56 0.61 0.62 0.70 0.73 0.75 0.76 0.82 0.83 0.80 0.79 0.83 0.91 0.96 1.02 1.07 1.16 1.16 1.15 1.19 1.17 1.09 1.06 1.03 0.98 0.94 0.95 0.95 0.95 1.00 1.06 1.08 1.05 1.03 1.05 1.03 1.05 1.11
0.31 0.35 0.38 0.42 0.45 0.45 0.45 0.48 0.54 0.62 0.66 0.69 0.79 0.82 0.83 0.86 0.95 0.97 0.93 0.94 0.96 1.02 1.07 1.09 1.13 1.15 1.15 1.12 1.11 1.08 1.06 1.07 1.09 1.05 1.02 1.03 1.08 1.07 1.03 1.02 1.02 1.05 1.12
0.25 0.26 0.31 0.38 0.40 0.39 0.39 0.40 0.43 0.48 0.51 0.56 0.64 0.72 0.79 0.86 0.95 1.00 0.98 0.94 0.91 0.96 1.04 1.04 1.09 1.16 1.18 1.32 1.29 1.19 1.15 1.14 1.11 1.05 0.97 0.95 0.99 1.00 1.04 1.05 1.05 1.11 1.21
0.19 0.19 0.23 0.29 0.31 0.31 0.33 0.36 0.38 0.42 0.46 0.47 0.51 0.61 0.76 0.83 0.87 0.92 0.96 0.96 0.96 1.05 1.14 1.15 1.16 1.24 1.34 1.41 1.24 1.18 1.09 1.07 1.03 0.96 0.91 0.87 0.85 0.90 0.84 0.90 0.98 1.01 1.12
0.15 0.16 0.19 0.22 0.22 0.24 0.26 0.28 0.30 0.36 0.45 0.49 0.54 0.61 0.70 0.80 0.90 0.94 0.99 1.02 1.02 1.10 1.19 1.24 1.26 1.28 1.31 1.34 1.24 1.15 0.99 0.94 0.90 0.85 0.80 0.79 0.78 0.79 0.86 0.93 0.99 0.91 0.86
0.16 0.15 0.17 0.18 0.17 0.19 0.23 0.24 0.26 0.32 0.40 0.47 0.53 0.56 0.64 0.73 0.86 0.96 1.03 1.07 1.10 1.13 1.18 1.17 1.14 1.11 1.12 1.12 1.04 1.04 0.94 0.92 0.85 0.78 0.77 0.78 0.75 0.84 1.00 1.05 1.06 0.91 0.77
0.20 0.20 0.19 0.18 0.18 0.19 0.21 0.25 0.28 0.33 0.40 0.44 0.49 0.52 0.58 0.66 0.77 0.89 0.98 1.02 1.04 1.05 1.03 1.02 0.97 0.94 0.94 1.00 0.93 0.93 0.92 0.92 0.85 0.79 0.77 0.85 0.83 0.94 1.06 1.01 1.02 0.94 0.77
0.21 0.25 0.27 0.27 0.28 0.30 0.31 0.33 0.34 0.38 0.41 0.44 0.50 0.53 0.57 0.63 0.71 0.78 0.81 0.83 0.83 0.82 0.81 0.79 0.77 0.76 0.79 0.84 0.82 0.83 0.86 0.87 0.88 0.86 0.78 0.77 0.94 1.03 1.07 0.99 0.84 0.85 0.92
0.24 0.29 0.34 0.36 0.37 0.37 0.38 0.39 0.42 0.44 0.43 0.45 0.50 0.56 0.58 0.57 0.58 0.61 0.65 0.63 0.63 0.63 0.63 0.63 0.64 0.66 0.69 0.73 0.77 0.81 0.86 0.91 0.86 0.81 0.73 0.75 0.94 0.96 0.92 0.85 0.86 0.95 0.92
0.27 0.30 0.32 0.34 0.35 0.38 0.42 0.45 0.46 0.44 0.43 0.46 0.48 0.49 0.50 0.49 0.50 0.51 0.52 0.54 0.55 0.56 0.59 0.59 0.59 0.61 0.62 0.65 0.75 0.77 0.84 0.90 0.83 0.78 0.82 0.86 0.88 0.83 0.79 0.82 0.85 0.83 0.79
0.28 0.27 0.28 0.28 0.31 0.33 0.36 0.39 0.39 0.38 0.36 0.39 0.39 0.39 0.39 0.41 0.42 0.44 0.46 0.50 0.51 0.51 0.52 0.53 0.53 0.53 0.54 0.54 0.59 0.67 0.73 0.79 0.78 0.80 0.82 0.79 0.77 0.75 0.76 0.82 0.80 0.74 0.79
0.28 0.25 0.25 0.25 0.27 0.27 0.29 0.31 0.32 0.32 0.31 0.32 0.31 0.30 0.31 0.36 0.40 0.41 0.42 0.46 0.49 0.54 0.55 0.52 0.51 0.53 0.53 0.54 0.67 0.73 0.70 0.77 0.81 0.81 0.71 0.66 0.67 0.68 0.68 0.67 0.71 0.74 0.79
0.28 0.24 0.23 0.23 0.23 0.23 0.23 0.24 0.26 0.29 0.30 0.30 0.29 0.29 0.27 0.31 0.38 0.42 0.42 0.46 0.50 0.56 0.61 0.60 0.57 0.53 0.56 0.61 0.66 0.69 0.75 0.81 0.84 0.78 0.69 0.64 0.62 0.63 0.65 0.66 0.68 0.72 0.78

GEFSMW_prec_meanprecacc_234.txt.gz
Total_Precipitation_Accumulation
0.96 1.14 1.44 1.80 2.10 2.27 2.58 2.74 2.97 3.18 3.22 3.13 2.82 2.53 2.34 2.28 2.15 1.89 1.67 1.64 1.59 1.49 1.53 1.56 1.41 1.24 1.21 1.14 1.04 0.99 0.98 1.03 1.09 1.05 0.89 0.73 0.63 0.54 0.46 0.42 0.36 0.30 0.26
0.78 0.96 1.32 1.52 1.74 1.99 2.19 2.49 2.58 2.88 2.92 2.82 2.76 2.61 2.53 2.46 2.37 2.21 1.93 1.78 1.74 1.64 1.55 1.53 1.49 1.33 1.23 1.26 1.27 1.19 1.12 1.06 1.10 1.16 1.13 0.96 0.82 0.63 0.49 0.46 0.44 0.39 0.36
0.60 0.75 1.06 1.35 1.46 1.71 2.01 2.14 2.26 2.50 2.75 2.79 2.90 2.98 2.91 2.66 2.40 2.26 2.18 2.01 1.90 1.83 1.69 1.60 1.60 1.50 1.33 1.23 1.28 1.34 1.33 1.31 1.30 1.26 1.36 1.24 0.96 0.74 0.56 0.47 0.46 0.45 0.44
0.50 0.60 0.71 0.97 1.19 1.37 1.73 2.05 2.23 2.36 2.56 2.86 2.85 2.74 2.60 2.40 2.14 2.14 2.22 2.21 2.10 1.99 1.84 1.77 1.75 1.67 1.52 1.38 1.38 1.40 1.47 1.52 1.49 1.45 1.35 1.25 1.07 1.01 0.80 0.55 0.47 0.45 0.41
0.55 0.55 0.58 0.73 0.94 1.12 1.45 1.77 2.03 2.32 2.52 2.65 2.69 2.72 2.51 2.32 2.27 2.20 2.20 2.12 2.03 1.97 1.91 1.85 1.90 1.83 1.70 1.63 1.64 1.61 1.60 1.62 1.61 1.55 1.47 1.41 1.26 1.12 1.06 0.81 0.60 0.56 0.51
0.55 0.53 0.55 0.65 0.82 0.93 1.15 1.47 1.75 1.92 2.17 2.42 2.47 2.48 2.47 2.43 2.38 2.19 2.10 2.08 2.06 2.00 1.90 1.90 1.94 1.95 1.89 1.79 1.76 1.77 1.77 1.77 1.74 1.70 1.57 1.49 1.42 1.26 1.24 1.12 0.86 0.79 0.70
0.46 0.46 0.52 0.60 0.74 0.87 1.00 1.16 1.36 1.51 1.70 1.94 2.07 2.10 2.21 2.32 2.25 2.14 1.95 1.89 1.87 1.83 1.79 1.78 1.84 1.92 1.90 1.88 1.86 1.86 1.84 1.85 1.86 1.82 1.74 1.62 1.50 1.42 1.45 1.45 1.24 1.04 0.86
0.44 0.43 0.43 0.50 0.62 0.73 0.87 0.98 1.09 1.21 1.40 1.57 1.70 1.83 1.94 2.12 2.13 2.11 1.90 1.75 1.69 1.68 1.75 1.69 1.61 1.65 1.74 1.78 1.79 1.77 1.75 1.76 1.74 1.70 1.68 1.64 1.52 1.51 1.56 1.64 1.73 1.62 1.28
0.43 0.41 0.40 0.42 0.52 0.59 0.69 0.81 0.94 1.04 1.15 1.31 1.48 1.63 1.69 1.76 1.84 1.93 1.91 1.75 1.66 1.61 1.60 1.54 1.47 1.41 1.43 1.52 1.61 1.61 1.60 1.63 1.63 1.59 1.57 1.59 1.53 1.52 1.57 1.68 1.86 2.07 1.88
0.43 0.40 0.40 0.45 0.51 0.53 0.57 0.68 0.85 0.91 0.95 1.06 1.20 1.32 1.43 1.58 1.65 1.69 1.68 1.61 1.56 1.55 1.52 1.42 1.33 1.27 1.26 1.27 1.34 1.36 1.36 1.40 1.41 1.42 1.43 1.41 1.40 1.45 1.49 1.55 1.64 1.81 1.91
0.44 0.43 0.47 0.53 0.58 0.54 0.56 0.65 0.75 0.86 0.93 0.97 1.04 1.09 1.12 1.20 1.36 1.49 1.51 1.51 1.48 1.46 1.43 1.36 1.30 1.25 1.18 1.14 1.13 1.11 1.16 1.23 1.24 1.27 1.28 1.22 1.20 1.26 1.29 1.34 1.40 1.49 1.60
0.40 0.45 0.53 0.55 0.56 0.59 0.62 0.67 0.71 0.79 0.91 0.94 0.97 1.03 1.05 1.03 1.11 1.23 1.35 1.43 1.50 1.41 1.38 1.33 1.27 1.20 1.15 1.11 1.08 1.04 1.03 1.07 1.10 1.13 1.18 1.16 1.12 1.13 1.16 1.21 1.20 1.20 1.24
0.39 0.40 0.47 0.53 0.54 0.59 0.69 0.72 0.76 0.78 0.81 0.86 0.88 0.90 0.91 0.90 0.93 1.00 1.12 1.20 1.31 1.32 1.28 1.29 1.22 1.12 1.07 1.05 1.02 0.98 0.97 0.98 0.97 1.00 1.09 1.13 1.15 1.15 1.14 1.15 1.13 1.12 1.14
0.38 0.38 0.43 0.47 0.52 0.57 0.62 0.63 0.72 0.75 0.77 0.78 0.84 0.86 0.83 0.82 0.87 0.94 0.99 1.04 1.10 1.19 1.19 1.20 1.23 1.21 1.14 1.10 1.07 1.02 0.98 0.99 0.98 0.97 1.03 1.09 1.11 1.07 1.04 1.06 1.03 1.06 1.12
0.34 0.38 0.40 0.43 0.46 0.46 0.45 0.49 0.55 0.64 0.67 0.71 0.80 0.85 0.86 0.90 0.99 1.01 0.97 0.97 0.99 1.05 1.11 1.13 1.17 1.19 1.19 1.16 1.15 1.12 1.10 1.12 1.12 1.07 1.04 1.04 1.09 1.08 1.04 1.03 1.03 1.06 1.13
0.28 0.30 0.34 0.39 0.41 0.40 0.40 0.41 0.45 0.50 0.52 0.57 0.65 0.74 0.81 0.89 0.99 1.04 1.01 0.97 0.94 0.99 1.07 1.07 1.13 1.20 1.22 1.36 1.34 1.24 1.20 1.19 1.15 1.09 0.99 0.96 1.01 1.01 1.05 1.06 1.06 1.12 1.23
0.22 0.22 0.25 0.30 0.32 0.32 0.34 0.37 0.40 0.43 0.47 0.48 0.53 0.63 0.78 0.86 0.90 0.97 1.00 0.99 0.98 1.08 1.17 1.18 1.19 1.27 1.39 1.46 1.30 1.23 1.13 1.11 1.07 1.00 0.94 0.89 0.86 0.92 0.86 0.92 0.99 1.04 1.14
0.18 0.18 0.20 0.23 0.23 0.25 0.27 0.29 0.31 0.38 0.46 0.51 0.56 0.63 0.73 0.83 0.92 0.98 1.03 1.06 1.06 1.13 1.22 1.27 1.28 1.31 1.34 1.38 1.28 1.21 1.05 1.00 0.96 0.90 0.84 0.83 0.80 0.82 0.89 0.96 1.02 0.94 0.89
0.18 0.17 0.18 0.19 0.18 0.20 0.24 0.25 0.28 0.34 0.42 0.49 0.55 0.59 0.68 0.78 0.89 1.00 1.08 1.11 1.13 1.16 1.21 1.20 1.17 1.14 1.15 1.16 1.08 1.08 0.98 0.98 0.92 0.86 0.83 0.82 0.78 0.87 1.03 1.09 1.10 0.95 0.81
0.21 0.21 0.20 0.19 0.18 0.20 0.22 0.26 0.29 0.34 0.42 0.46 0.52 0.56 0.62 0.72 0.82 0.93 1.02 1.07 1.09 1.10 1.07 1.05 1.00 0.97 0.97 1.04 0.97 0.97 0.96 0.97 0.91 0.85 0.83 0.90 0.88 0.97 1.09 1.05 1.06 0.99 0.81
0.22 0.26 0.28 0.28 0.29 0.31 0.32 0.33 0.35 0.39 0.43 0.46 0.52 0.56 0.60 0.67 0.75 0.81 0.85 0.89 0.89 0.89 0.87 0.85 0.82 0.80 0.83 0.89 0.86 0.87 0.91 0.92 0.93 0.92 0.84 0.83 1.00 1.09 1.12 1.03 0.88 0.89 0.96
0.26 0.30 0.35 0.37 0.38 0.38 0.39 0.40 0.43 0.45 0.45 0.47 0.53 0.58 0.60 0.59 0.61 0.64 0.69 0.68 0.68 0.70 0.70 0.70 0.71 0.72 0.75 0.78 0.82 0.85 0.91 0.96 0.90 0.86 0.79 0.82 1.01 1.02 0.98 0.90 0.91 0.99 0.95
0.30 0.32 0.34 0.35 0.36 0.40 0.43 0.46 0.47 0.46 0.45 0.48 0.49 0.51 0.53 0.52 0.53 0.54 0.56 0.58 0.60 0.61 0.64 0.65 0.66 0.67 0.68 0.71 0.80 0.82 0.89 0.95 0.88 0.83 0.88 0.93 0.94 0.89 0.85 0.87 0.90 0.87 0.82
0.32 0.31 0.31 0.31 0.33 0.35 0.38 0.41 0.40 0.40 0.38 0.41 0.41 0.41 0.42 0.44 0.46 0.47 0.50 0.54 0.56 0.56 0.56 0.58 0.58 0.59 0.60 0.59 0.64 0.72 0.78 0.85 0.84 0.86 0.88 0.85 0.82 0.80 0.81 0.86 0.84 0.77 0.81
0.33 0.30 0.29 0.29 0.31 0.31 0.32 0.34 0.34 0.33 0.34 0.35 0.34 0.33 0.34 0.39 0.43 0.44 0.47 0.51 0.54 0.59 0.60 0.56 0.55 0.58 0.58 0.59 0.72 0.78 0.75 0.82 0.87 0.87 0.77 0.72 0.72 0.73 0.71 0.70 0.73 0.75 0.81
0.32 0.29 0.28 0.29 0.28 0.27 0.28 0.27 0.29 0.32 0.33 0.33 0.33 0.33 0.31 0.35 0.42 0.46 0.46 0.51 0.55 0.61 0.66 0.65 0.61 0.57 0.60 0.65 0.71 0.74 0.80 0.86 0.89 0.82 0.73 0.68 0.66 0.66 0.68 0.68 0.69 0.73 0.78

GEFSMW_prec_meanprecacc_240.txt.gz
Total_Precipitation_Accumulation
0.96 1.15 1.45 1.81 2.11 2.29 2.60 2.76 2.99 3.21 3.28 3.21 2.89 2.59 2.39 2.32 2.19 1.92 1.70 1.67 1.61 1.51 1.55 1.60 1.46 1.29 1.25 1.20 1.10 1.04 1.02 1.07 1.13 1.10 0.95 0.79 0.69 0.57 0.49 0.44 0.37 0.31 0.27
0.78 0.97 1.33 1.53 1.75 2.01 2.21 2.52 2.61 2.91 2.97 2.89 2.85 2.68 2.59 2.50 2.41 2.24 1.95 1.82 1.77 1.66 1.57 1.55 1.54 1.39 1.28 1.31 1.33 1.24 1.16 1.10 1.13 1.19 1.18 1.02 0.90 0.71 0.55 0.50 0.47 0.42 0.39
0.60 0.75 1.07 1.36 1.48 1.73 2.03 2.17 2.31 2.55 2.80 2.86 2.99 3.07 2.99 2.72 2.44 2.29 2.20 2.03 1.93 1.85 1.71 1.62 1.62 1.55 1.39 1.29 1.35 1.39 1.35 1.34 1.33 1.29 1.40 1.29 1.02 0.81 0.63 0.53 0.51 0.49 0.47
0.50 0.60 0.71 0.98 1.20 1.38 1.75 2.07 2.28 2.43 2.61 2.93 2.92 2.81 2.67 2.47 2.19 2.16 2.24 2.22 2.12 2.01 1.86 1.79 1.78 1.69 1.56 1.43 1.42 1.44 1.49 1.54 1.52 1.48 1.38 1.29 1.11 1.05 0.85 0.61 0.52 0.50 0.46
0.55 0.55 0.58 0.73 0.94 1.13 1.46 1.79 2.06 2.38 2.61 2.73 2.74 2.76 2.56 2.37 2.32 2.23 2.23 2.14 2.04 1.99 1.94 1.88 1.93 1.86 1.74 1.67 1.68 1.64 1.64 1.65 1.64 1.58 1.50 1.45 1.30 1.15 1.10 0.86 0.65 0.61 0.55
0.55 0.54 0.55 0.65 0.82 0.94 1.16 1.49 1.77 1.94 2.23 2.52 2.53 2.52 2.51 2.46 2.42 2.23 2.14 2.12 2.08 2.01 1.93 1.94 1.98 1.99 1.93 1.84 1.80 1.81 1.82 1.81 1.77 1.73 1.60 1.52 1.45 1.29 1.28 1.15 0.90 0.82 0.73
0.46 0.47 0.52 0.60 0.74 0.88 1.01 1.18 1.38 1.52 1.73 2.00 2.15 2.16 2.25 2.35 2.28 2.18 1.99 1.94 1.90 1.85 1.82 1.82 1.90 1.98 1.96 1.94 1.92 1.92 1.89 1.90 1.91 1.87 1.78 1.67 1.54 1.45 1.49 1.49 1.27 1.07 0.89
0.45 0.43 0.43 0.50 0.62 0.73 0.88 0.99 1.10 1.23 1.41 1.60 1.76 1.91 2.01 2.17 2.19 2.16 1.94 1.80 1.73 1.71 1.80 1.75 1.68 1.73 1.82 1.86 1.87 1.85 1.81 1.81 1.80 1.75 1.73 1.70 1.57 1.55 1.60 1.68 1.77 1.66 1.31
0.43 0.41 0.41 0.42 0.52 0.60 0.70 0.82 0.95 1.05 1.16 1.33 1.51 1.67 1.76 1.83 1.90 1.99 1.97 1.81 1.72 1.67 1.67 1.60 1.52 1.47 1.50 1.61 1.71 1.71 1.69 1.70 1.70 1.66 1.63 1.65 1.58 1.56 1.60 1.71 1.90 2.11 1.91
0.43 0.40 0.41 0.45 0.52 0.54 0.58 0.69 0.85 0.91 0.97 1.07 1.22 1.34 1.48 1.63 1.71 1.75 1.75 1.68 1.64 1.62 1.58 1.48 1.38 1.32 1.31 1.35 1.44 1.47 1.47 1.50 1.49 1.49 1.49 1.47 1.45 1.49 1.54 1.60 1.68 1.85 1.95
0.45 0.45 0.47 0.54 0.59 0.56 0.58 0.66 0.76 0.87 0.94 0.98 1.06 1.12 1.14 1.24 1.41 1.54 1.58 1.57 1.54 1.52 1.49 1.42 1.35 1.29 1.23 1.20 1.21 1.20 1.24 1.31 1.31 1.34 1.34 1.27 1.24 1.31 1.35 1.39 1.45 1.52 1.64
0.41 0.47 0.54 0.55 0.57 0.60 0.63 0.68 0.72 0.81 0.92 0.96 0.99 1.05 1.07 1.06 1.14 1.26 1.38 1.47 1.54 1.45 1.42 1.39 1.31 1.24 1.20 1.15 1.13 1.10 1.09 1.13 1.16 1.18 1.23 1.21 1.16 1.17 1.20 1.24 1.23 1.24 1.27
0.40 0.41 0.49 0.53 0.55 0.60 0.69 0.73 0.78 0.79 0.83 0.88 0.90 0.92 0.93 0.92 0.96 1.03 1.15 1.23 1.34 1.35 1.31 1.32 1.26 1.16 1.13 1.10 1.08 1.04 1.03 1.04 1.02 1.04 1.12 1.16 1.18 1.18 1.17 1.17 1.15 1.14 1.17
0.39 0.39 0.44 0.48 0.53 0.58 0.63 0.64 0.73 0.77 0.79 0.80 0.87 0.88 0.85 0.84 0.89 0.97 1.02 1.08 1.13 1.21 1.21 1.22 1.26 1.25 1.19 1.16 1.12 1.08 1.04 1.04 1.02 1.00 1.06 1.11 1.12 1.08 1.06 1.08 1.06 1.08 1.13
0.36 0.40 0.42 0.45 0.48 0.47 0.46 0.50 0.56 0.65 0.69 0.73 0.82 0.87 0.87 0.91 1.00 1.03 0.99 0.99 1.01 1.07 1.13 1.15 1.20 1.23 1.23 1.20 1.19 1.16 1.14 1.15 1.15 1.10 1.06 1.06 1.11 1.09 1.05 1.04 1.04 1.07 1.15
0.30 0.32 0.36 0.41 0.43 0.42 0.41 0.43 0.46 0.51 0.53 0.58 0.67 0.76 0.83 0.91 1.01 1.06 1.03 0.99 0.96 1.01 1.09 1.10 1.16 1.23 1.25 1.40 1.37 1.26 1.22 1.22 1.18 1.11 1.02 0.99 1.03 1.03 1.07 1.08 1.07 1.14 1.24
0.26 0.26 0.28 0.33 0.34 0.35 0.37 0.39 0.41 0.45 0.48 0.49 0.54 0.64 0.80 0.87 0.92 0.99 1.03 1.01 1.00 1.09 1.19 1.20 1.22 1.30 1.42 1.50 1.33 1.26 1.15 1.14 1.10 1.03 0.98 0.92 0.89 0.95 0.88 0.94 1.01 1.05 1.16
0.22 0.21 0.24 0.26 0.26 0.28 0.30 0.31 0.33 0.39 0.48 0.52 0.57 0.65 0.74 0.84 0.95 1.01 1.06 1.08 1.08 1.15 1.24 1.29 1.30 1.33 1.37 1.41 1.31 1.24 1.07 1.02 0.98 0.92 0.87 0.86 0.84 0.85 0.92 0.99 1.04 0.96 0.90
0.21 0.20 0.21 0.22 0.21 0.23 0.27 0.27 0.30 0.36 0.44 0.50 0.56 0.60 0.69 0.80 0.92 1.03 1.10 1.13 1.15 1.18 1.23 1.21 1.19 1.16 1.18 1.19 1.10 1.10 1.01 1.01 0.95 0.89 0.86 0.86 0.83 0.92 1.07 1.12 1.13 0.98 0.83
0.24 0.24 0.22 0.21 0.21 0.23 0.25 0.28 0.32 0.36 0.44 0.47 0.53 0.57 0.63 0.73 0.85 0.96 1.05 1.10 1.12 1.12 1.09 1.07 1.02 0.98 0.99 1.07 0.99 0.99 0.98 0.99 0.93 0.88 0.86 0.93 0.92 1.02 1.14 1.08 1.09 1.01 0.84
0.25 0.29 0.31 0.30 0.31 0.33 0.34 0.35 0.37 0.41 0.44 0.47 0.53 0.57 0.61 0.68 0.78 0.84 0.88 0.91 0.92 0.91 0.89 0.86 0.83 0.81 0.84 0.90 0.88 0.90 0.93 0.94 0.96 0.95 0.88 0.87 1.04 1.14 1.18 1.08 0.92 0.93 0.99
0.28 0.33 0.38 0.39 0.40 0.41 0.42 0.42 0.45 0.47 0.47 0.48 0.53 0.59 0.61 0.60 0.62 0.66 0.71 0.70 0.70 0.72 0.72 0.73 0.73 0.74 0.77 0.80 0.83 0.88 0.94 1.00 0.94 0.90 0.83 0.86 1.05 1.07 1.03 0.97 0.97 1.06 1.01
0.33 0.34 0.37 0.38 0.38 0.42 0.46 0.48 0.49 0.48 0.47 0.49 0.50 0.52 0.54 0.53 0.54 0.55 0.58 0.60 0.62 0.64 0.67 0.68 0.69 0.70 0.70 0.73 0.82 0.84 0.91 0.98 0.91 0.87 0.92 0.97 0.99 0.94 0.89 0.92 0.95 0.93 0.88
0.35 0.34 0.33 0.34 0.36 0.38 0.42 0.44 0.43 0.41 0.40 0.43 0.42 0.42 0.43 0.46 0.47 0.49 0.52 0.57 0.59 0.59 0.60 0.62 0.62 0.63 0.63 0.62 0.66 0.75 0.80 0.87 0.87 0.90 0.92 0.90 0.86 0.84 0.85 0.91 0.88 0.81 0.86
0.36 0.33 0.33 0.34 0.35 0.35 0.36 0.38 0.38 0.36 0.36 0.37 0.35 0.35 0.36 0.41 0.45 0.47 0.50 0.54 0.58 0.63 0.64 0.60 0.59 0.62 0.62 0.62 0.76 0.81 0.78 0.84 0.89 0.90 0.80 0.75 0.75 0.77 0.75 0.74 0.77 0.80 0.85
0.36 0.33 0.32 0.34 0.34 0.32 0.33 0.33 0.34 0.36 0.36 0.36 0.36 0.36 0.34 0.38 0.45 0.48 0.50 0.55 0.59 0.65 0.69 0.69 0.65 0.61 0.64 0.69 0.74 0.78 0.84 0.89 0.92 0.86 0.77 0.72 0.70 0.70 0.71 0.71 0.72 0.76 0.82

GEFSMW_prec_meanprecacc_246.txt.gz
Total_Precipitation_Accumulation
0.96 1.15 1.46 1.83 2.13 2.30 2.62 2.78 3.02 3.25 3.33 3.26 2.94 2.65 2.48 2.43 2.27 1.97 1.74 1.71 1.66 1.55 1.58 1.61 1.47 1.30 1.27 1.22 1.12 1.08 1.06 1.11 1.17 1.14 0.99 0.86 0.74 0.61 0.51 0.46 0.39 0.33 0.28
0.78 0.97 1.33 1.54 1.77 2.02 2.22 2.53 2.64 2.95 3.01 2.93 2.89 2.74 2.66 2.60 2.49 2.32 2.01 1.86 1.81 1.70 1.60 1.57 1.55 1.40 1.29 1.33 1.36 1.28 1.20 1.15 1.17 1.23 1.22 1.09 1.00 0.78 0.58 0.53 0.50 0.44 0.41
0.60 0.75 1.07 1.36 1.49 1.74 2.04 2.18 2.33 2.58 2.84 2.90 3.05 3.13 3.07 2.81 2.54 2.39 2.29 2.09 1.97 1.90 1.75 1.65 1.64 1.57 1.42 1.30 1.37 1.42 1.40 1.39 1.39 1.33 1.43 1.33 1.09 0.89 0.70 0.58 0.54 0.51 0.50
0.50 0.60 0.71 0.98 1.21 1.39 1.78 2.11 2.30 2.47 2.66 2.98 2.97 2.85 2.71 2.53 2.25 2.25 2.32 2.31 2.19 2.07 1.91 1.83 1.80 1.71 1.60 1.47 1.45 1.49 1.55 1.59 1.58 1.53 1.41 1.31 1.14 1.09 0.91 0.67 0.57 0.53 0.48
0.55 0.55 0.58 0.74 0.95 1.14 1.48 1.83 2.10 2.41 2.65 2.77 2.79 2.81 2.60 2.42 2.37 2.30 2.30 2.21 2.12 2.08 2.02 1.94 1.97 1.89 1.76 1.71 1.72 1.69 1.71 1.72 1.69 1.62 1.53 1.48 1.33 1.18 1.12 0.89 0.68 0.65 0.58
0.55 0.54 0.56 0.66 0.83 0.95 1.18 1.53 1.80 1.97 2.27 2.57 2.59 2.58 2.55 2.50 2.47 2.27 2.19 2.17 2.12 2.07 2.01 2.01 2.03 2.03 1.96 1.86 1.84 1.84 1.87 1.87 1.82 1.78 1.64 1.55 1.48 1.33 1.31 1.18 0.93 0.86 0.77
0.46 0.47 0.52 0.61 0.75 0.89 1.02 1.20 1.40 1.55 1.76 2.03 2.21 2.23 2.31 2.39 2.31 2.21 2.03 1.97 1.93 1.89 1.85 1.87 1.96 2.03 2.00 1.97 1.95 1.95 1.92 1.94 1.94 1.91 1.83 1.71 1.57 1.49 1.52 1.53 1.31 1.11 0.92
0.45 0.44 0.44 0.51 0.62 0.74 0.89 1.00 1.12 1.25 1.44 1.63 1.80 1.96 2.07 2.23 2.24 2.20 1.98 1.83 1.76 1.74 1.83 1.78 1.72 1.78 1.88 1.92 1.90 1.88 1.84 1.85 1.84 1.80 1.77 1.75 1.62 1.59 1.64 1.72 1.81 1.69 1.34
0.44 0.42 0.41 0.43 0.53 0.60 0.71 0.83 0.96 1.07 1.18 1.35 1.53 1.71 1.81 1.89 1.97 2.05 2.00 1.84 1.75 1.70 1.70 1.63 1.56 1.50 1.55 1.69 1.79 1.75 1.72 1.72 1.73 1.70 1.68 1.69 1.64 1.62 1.64 1.76 1.95 2.15 1.95
0.44 0.41 0.42 0.46 0.53 0.54 0.59 0.70 0.87 0.93 0.99 1.10 1.24 1.37 1.51 1.67 1.76 1.81 1.80 1.73 1.68 1.66 1.61 1.51 1.41 1.35 1.35 1.39 1.52 1.55 1.53 1.55 1.53 1.54 1.54 1.52 1.50 1.55 1.59 1.65 1.73 1.90 2.00
0.45 0.45 0.48 0.55 0.60 0.57 0.59 0.67 0.77 0.89 0.96 1.01 1.09 1.14 1.16 1.26 1.44 1.59 1.63 1.63 1.60 1.57 1.53 1.45 1.38 1.33 1.27 1.24 1.26 1.26 1.34 1.40 1.40 1.41 1.41 1.35 1.31 1.36 1.40 1.43 1.50 1.58 1.69
0.41 0.48 0.54 0.56 0.58 0.61 0.65 0.70 0.74 0.82 0.94 0.99 1.02 1.08 1.09 1.08 1.16 1.29 1.42 1.51 1.58 1.49 1.47 1.43 1.36 1.29 1.24 1.20 1.18 1.15 1.17 1.21 1.26 1.26 1.30 1.27 1.22 1.21 1.24 1.28 1.27 1.28 1.31
0.40 0.42 0.49 0.54 0.55 0.60 0.70 0.74 0.79 0.81 0.84 0.91 0.93 0.95 0.96 0.94 0.98 1.05 1.18 1.26 1.37 1.38 1.35 1.36 1.31 1.21 1.17 1.15 1.13 1.09 1.09 1.10 1.10 1.13 1.20 1.22 1.23 1.22 1.20 1.20 1.18 1.17 1.19
0.39 0.40 0.45 0.49 0.53 0.58 0.63 0.64 0.74 0.77 0.80 0.81 0.89 0.91 0.88 0.87 0.91 0.99 1.05 1.10 1.16 1.24 1.24 1.25 1.29 1.28 1.23 1.20 1.16 1.13 1.09 1.09 1.08 1.08 1.14 1.18 1.17 1.12 1.09 1.11 1.08 1.10 1.16
0.37 0.41 0.43 0.46 0.48 0.47 0.47 0.50 0.57 0.66 0.70 0.74 0.83 0.89 0.90 0.93 1.03 1.05 1.01 1.02 1.03 1.09 1.14 1.17 1.22 1.25 1.24 1.23 1.22 1.18 1.17 1.18 1.19 1.14 1.11 1.13 1.17 1.13 1.08 1.07 1.07 1.09 1.17
0.31 0.33 0.37 0.43 0.45 0.44 0.42 0.44 0.48 0.52 0.54 0.59 0.68 0.78 0.85 0.93 1.03 1.08 1.06 1.01 0.98 1.03 1.11 1.11 1.18 1.24 1.27 1.42 1.40 1.29 1.25 1.25 1.20 1.14 1.05 1.02 1.08 1.08 1.10 1.10 1.09 1.16 1.26
0.28 0.27 0.30 0.35 0.36 0.37 0.39 0.42 0.43 0.47 0.50 0.51 0.55 0.66 0.82 0.89 0.94 1.01 1.05 1.03 1.02 1.11 1.22 1.23 1.24 1.32 1.44 1.52 1.35 1.28 1.17 1.16 1.12 1.05 1.00 0.94 0.91 0.97 0.90 0.96 1.03 1.06 1.17
0.24 0.24 0.26 0.29 0.29 0.30 0.33 0.35 0.37 0.42 0.50 0.54 0.59 0.66 0.76 0.86 0.97 1.03 1.07 1.10 1.10 1.17 1.27 1.31 1.33 1.35 1.39 1.44 1.33 1.26 1.10 1.04 0.99 0.94 0.89 0.88 0.86 0.87 0.94 1.01 1.06 0.98 0.92
0.23 0.23 0.24 0.25 0.24 0.26 0.29 0.30 0.34 0.40 0.46 0.52 0.58 0.62 0.70 0.81 0.93 1.04 1.12 1.15 1.17 1.21 1.25 1.24 1.21 1.18 1.19 1.21 1.13 1.13 1.03 1.02 0.97 0.90 0.88 0.88 0.85 0.95 1.11 1.15 1.15 1.00 0.85
0.26 0.27 0.25 0.24 0.23 0.26 0.28 0.31 0.35 0.40 0.47 0.50 0.55 0.59 0.65 0.75 0.86 0.97 1.07 1.12 1.14 1.14 1.12 1.10 1.04 1.00 1.00 1.09 1.02 1.02 1.00 1.01 0.95 0.89 0.87 0.95 0.94 1.05 1.17 1.11 1.11 1.03 0.85
0.27 0.32 0.33 0.33 0.34 0.36 0.36 0.37 0.40 0.44 0.47 0.49 0.55 0.59 0.63 0.70 0.79 0.86 0.89 0.93 0.94 0.93 0.91 0.88 0.85 0.83 0.86 0.92 0.90 0.92 0.94 0.96 0.98 0.97 0.89 0.88 1.07 1.17 1.21 1.11 0.94 0.95 1.01
0.30 0.35 0.40 0.41 0.42 0.43 0.44 0.45 0.47 0.50 0.49 0.51 0.56 0.61 0.63 0.62 0.63 0.67 0.72 0.71 0.72 0.74 0.74 0.74 0.74 0.76 0.78 0.82 0.85 0.90 0.96 1.01 0.96 0.92 0.85 0.89 1.08 1.10 1.06 0.99 1.00 1.09 1.04
0.35 0.37 0.39 0.39 0.40 0.45 0.49 0.51 0.52 0.50 0.49 0.52 0.53 0.55 0.56 0.55 0.56 0.57 0.59 0.62 0.63 0.65 0.68 0.69 0.70 0.71 0.71 0.74 0.84 0.86 0.93 1.00 0.93 0.90 0.95 1.00 1.02 0.96 0.91 0.95 0.98 0.96 0.91
0.38 0.37 0.36 0.36 0.39 0.41 0.45 0.47 0.45 0.44 0.43 0.45 0.45 0.45 0.45 0.47 0.49 0.50 0.54 0.59 0.61 0.60 0.61 0.63 0.64 0.64 0.65 0.63 0.68 0.76 0.82 0.90 0.90 0.93 0.95 0.93 0.90 0.87 0.88 0.94 0.91 0.84 0.88
0.39 0.36 0.36 0.37 0.39 0.38 0.39 0.41 0.40 0.38 0.38 0.40 0.38 0.37 0.38 0.43 0.46 0.48 0.51 0.56 0.60 0.65 0.66 0.62 0.62 0.64 0.64 0.65 0.78 0.83 0.80 0.87 0.92 0.93 0.83 0.78 0.79 0.80 0.79 0.77 0.80 0.82 0.88
0.39 0.36 0.36 0.38 0.38 0.35 0.36 0.36 0.37 0.39 0.39 0.39 0.39 0.38 0.36 0.40 0.46 0.50 0.52 0.58 0.61 0.67 0.71 0.71 0.67 0.64 0.67 0.73 0.78 0.81 0.86 0.91 0.94 0.88 0.79 0.74 0.73 0.74 0.75 0.74 0.75 0.79 0.84

GEFSMW_prec_meanprecacc_252.txt.gz
Total_Precipitation_Accumulation
0.96 1.16 1.47 1.85 2.15 2.32 2.63 2.80 3.04 3.27 3.36 3.29 2.97 2.69 2.52 2.46 2.29 1.99 1.76 1.73 1.67 1.58 1.62 1.66 1.51 1.32 1.28 1.23 1.12 1.08 1.06 1.12 1.18 1.15 1.00 0.87 0.76 0.64 0.54 0.47 0.40 0.34 0.30
0.79 0.98 1.34 1.56 1.79 2.04 2.23 2.55 2.66 2.97 3.03 2.95 2.91 2.76 2.69 2.63 2.52 2.34 2.03 1.88 1.84 1.74 1.65 1.60 1.58 1.42 1.30 1.34 1.36 1.29 1.21 1.15 1.18 1.24 1.23 1.10 1.02 0.82 0.62 0.56 0.53 0.46 0.43
0.60 0.76 1.07 1.37 1.51 1.77 2.06 2.20 2.35 2.60 2.87 2.93 3.08 3.17 3.11 2.85 2.58 2.42 2.32 2.12 2.00 1.93 1.78 1.67 1.66 1.59 1.43 1.31 1.38 1.44 1.41 1.40 1.39 1.34 1.44 1.34 1.10 0.92 0.74 0.62 0.57 0.54 0.53
0.51 0.60 0.71 0.98 1.22 1.42 1.80 2.12 2.32 2.49 2.68 3.00 3.00 2.89 2.75 2.57 2.29 2.28 2.36 2.35 2.23 2.11 1.93 1.85 1.83 1.74 1.62 1.48 1.46 1.50 1.57 1.61 1.59 1.54 1.43 1.33 1.15 1.10 0.94 0.71 0.62 0.58 0.53
0.55 0.55 0.58 0.74 0.95 1.15 1.51 1.86 2.13 2.44 2.67 2.80 2.82 2.84 2.64 2.46 2.41 2.35 2.36 2.27 2.16 2.13 2.07 1.98 2.01 1.92 1.79 1.73 1.73 1.70 1.73 1.74 1.71 1.64 1.55 1.49 1.34 1.19 1.14 0.93 0.73 0.69 0.63
0.56 0.54 0.56 0.66 0.83 0.96 1.19 1.55 1.83 2.00 2.29 2.60 2.63 2.61 2.59 2.54 2.51 2.31 2.23 2.25 2.20 2.12 2.06 2.10 2.12 2.09 2.01 1.89 1.86 1.86 1.89 1.90 1.86 1.81 1.67 1.58 1.50 1.34 1.32 1.20 0.96 0.90 0.81
0.48 0.49 0.54 0.62 0.76 0.90 1.03 1.21 1.43 1.58 1.78 2.06 2.25 2.27 2.34 2.43 2.36 2.26 2.06 2.02 2.01 1.99 1.92 1.92 2.04 2.11 2.08 2.05 2.02 1.99 1.95 1.97 1.98 1.95 1.87 1.75 1.60 1.50 1.54 1.55 1.33 1.13 0.95
0.48 0.46 0.46 0.53 0.64 0.75 0.90 1.02 1.14 1.27 1.46 1.66 1.83 2.01 2.13 2.27 2.28 2.25 2.04 1.87 1.80 1.81 1.93 1.86 1.78 1.86 1.96 2.00 2.00 1.97 1.91 1.90 1.88 1.83 1.81 1.80 1.66 1.62 1.66 1.74 1.83 1.72 1.37
0.48 0.45 0.44 0.45 0.55 0.62 0.72 0.84 0.97 1.08 1.20 1.37 1.56 1.74 1.86 1.94 2.01 2.09 2.08 1.93 1.80 1.75 1.76 1.70 1.64 1.60 1.64 1.78 1.88 1.84 1.80 1.80 1.80 1.75 1.72 1.75 1.70 1.66 1.68 1.79 1.98 2.19 1.99
0.48 0.44 0.44 0.47 0.54 0.56 0.60 0.72 0.88 0.94 1.00 1.11 1.26 1.40 1.55 1.73 1.82 1.87 1.86 1.83 1.79 1.72 1.67 1.56 1.46 1.42 1.43 1.48 1.59 1.63 1.61 1.62 1.60 1.60 1.59 1.57 1.57 1.62 1.64 1.69 1.77 1.95 2.04
0.48 0.48 0.50 0.56 0.62 0.58 0.60 0.68 0.78 0.90 0.97 1.03 1.11 1.17 1.20 1.31 1.49 1.65 1.69 1.70 1.72 1.68 1.61 1.52 1.43 1.37 1.31 1.30 1.31 1.32 1.41 1.48 1.47 1.47 1.47 1.41 1.37 1.44 1.48 1.50 1.55 1.63 1.75
0.44 0.50 0.56 0.56 0.59 0.62 0.65 0.71 0.75 0.83 0.95 1.00 1.05 1.11 1.13 1.12 1.21 1.34 1.47 1.57 1.66 1.60 1.57 1.52 1.43 1.34 1.28 1.24 1.22 1.19 1.22 1.27 1.31 1.32 1.36 1.33 1.28 1.29 1.33 1.37 1.35 1.34 1.37
0.42 0.43 0.50 0.55 0.56 0.61 0.70 0.75 0.80 0.82 0.85 0.92 0.95 0.97 0.99 0.99 1.03 1.10 1.22 1.31 1.43 1.46 1.44 1.45 1.40 1.29 1.23 1.19 1.16 1.13 1.13 1.14 1.14 1.17 1.25 1.28 1.30 1.30 1.28 1.27 1.25 1.23 1.24
0.41 0.41 0.45 0.49 0.54 0.59 0.64 0.64 0.74 0.78 0.81 0.82 0.90 0.92 0.90 0.91 0.96 1.05 1.09 1.15 1.21 1.29 1.30 1.32 1.36 1.36 1.30 1.25 1.20 1.17 1.13 1.14 1.12 1.11 1.18 1.23 1.22 1.18 1.14 1.16 1.13 1.16 1.21
0.38 0.42 0.44 0.46 0.49 0.48 0.47 0.51 0.58 0.66 0.70 0.74 0.84 0.90 0.92 0.97 1.07 1.10 1.07 1.06 1.07 1.13 1.19 1.21 1.26 1.29 1.29 1.27 1.25 1.22 1.20 1.21 1.22 1.18 1.15 1.17 1.22 1.18 1.12 1.11 1.10 1.13 1.20
0.33 0.35 0.38 0.44 0.45 0.44 0.43 0.44 0.48 0.52 0.55 0.60 0.69 0.78 0.86 0.96 1.08 1.14 1.11 1.06 1.02 1.06 1.14 1.14 1.20 1.27 1.29 1.45 1.43 1.31 1.26 1.26 1.22 1.16 1.07 1.05 1.12 1.13 1.15 1.14 1.12 1.18 1.28
0.30 0.29 0.31 0.36 0.37 0.38 0.40 0.42 0.44 0.47 0.51 0.51 0.56 0.67 0.83 0.91 0.98 1.07 1.11 1.09 1.07 1.15 1.24 1.25 1.26 1.34 1.45 1.54 1.37 1.30 1.18 1.17 1.13 1.07 1.01 0.96 0.94 1.01 0.94 1.00 1.06 1.09 1.20
0.26 0.26 0.28 0.30 0.30 0.31 0.34 0.36 0.38 0.43 0.51 0.55 0.60 0.68 0.78 0.88 0.99 1.07 1.13 1.16 1.16 1.24 1.31 1.34 1.35 1.38 1.41 1.45 1.35 1.27 1.10 1.05 1.00 0.95 0.90 0.90 0.87 0.89 0.97 1.04 1.09 1.01 0.94
0.25 0.24 0.26 0.27 0.25 0.27 0.30 0.32 0.36 0.42 0.48 0.55 0.60 0.64 0.72 0.83 0.96 1.08 1.17 1.21 1.24 1.28 1.32 1.28 1.24 1.20 1.22 1.24 1.15 1.14 1.04 1.03 0.98 0.91 0.89 0.90 0.87 0.97 1.13 1.18 1.18 1.02 0.87
0.28 0.29 0.27 0.25 0.25 0.27 0.29 0.32 0.37 0.43 0.50 0.53 0.58 0.61 0.68 0.78 0.89 1.00 1.11 1.17 1.20 1.20 1.18 1.16 1.08 1.03 1.03 1.12 1.04 1.04 1.02 1.02 0.96 0.91 0.89 0.97 0.96 1.07 1.19 1.13 1.13 1.05 0.87
0.29 0.34 0.35 0.34 0.35 0.37 0.38 0.39 0.42 0.48 0.50 0.53 0.58 0.62 0.67 0.73 0.83 0.89 0.93 0.97 0.98 0.98 0.95 0.92 0.90 0.87 0.89 0.95 0.93 0.95 0.96 0.98 0.99 0.98 0.91 0.90 1.08 1.18 1.23 1.14 0.96 0.97 1.04
0.32 0.36 0.41 0.42 0.44 0.45 0.46 0.46 0.49 0.53 0.52 0.54 0.58 0.64 0.67 0.66 0.67 0.71 0.76 0.75 0.75 0.77 0.77 0.77 0.77 0.79 0.82 0.85 0.88 0.93 0.98 1.03 0.97 0.93 0.86 0.89 1.10 1.11 1.08 1.02 1.03 1.12 1.07
0.37 0.38 0.40 0.40 0.41 0.46 0.51 0.54 0.54 0.53 0.52 0.54 0.55 0.57 0.59 0.59 0.60 0.61 0.64 0.67 0.67 0.67 0.70 0.71 0.72 0.73 0.73 0.77 0.87 0.88 0.96 1.02 0.95 0.91 0.96 1.01 1.03 0.98 0.93 0.97 1.01 1.00 0.95
0.39 0.38 0.37 0.37 0.40 0.42 0.47 0.49 0.47 0.46 0.45 0.48 0.47 0.47 0.47 0.50 0.52 0.53 0.58 0.63 0.66 0.63 0.63 0.65 0.65 0.65 0.66 0.64 0.69 0.78 0.85 0.92 0.91 0.94 0.97 0.94 0.91 0.88 0.90 0.96 0.94 0.87 0.92
0.41 0.38 0.38 0.39 0.40 0.40 0.42 0.44 0.43 0.41 0.42 0.43 0.40 0.39 0.40 0.44 0.48 0.50 0.54 0.59 0.63 0.68 0.68 0.64 0.63 0.65 0.65 0.66 0.79 0.85 0.82 0.88 0.93 0.94 0.84 0.80 0.80 0.82 0.80 0.79 0.81 0.84 0.91
0.41 0.38 0.37 0.39 0.40 0.37 0.39 0.40 0.41 0.43 0.43 0.43 0.42 0.41 0.38 0.42 0.48 0.51 0.54 0.61 0.64 0.70 0.74 0.73 0.69 0.65 0.69 0.74 0.80 0.83 0.88 0.93 0.97 0.90 0.80 0.75 0.74 0.75 0.76 0.75 0.77 0.80 0.87

GEFSMW_prec_meanprecacc_258.txt.gz
Total_Precipitation_Accumulation
0.98 1.18 1.49 1.88 2.19 2.37 2.68 2.83 3.07 3.30 3.39 3.32 3.00 2.72 2.56 2.49 2.33 2.05 1.83 1.78 1.70 1.59 1.65 1.72 1.57 1.37 1.30 1.24 1.13 1.09 1.07 1.12 1.19 1.16 1.01 0.88 0.76 0.64 0.55 0.48 0.42 0.35 0.31
0.80 1.00 1.36 1.58 1.83 2.09 2.27 2.58 2.69 3.00 3.05 2.97 2.92 2.79 2.73 2.67 2.55 2.37 2.09 1.95 1.89 1.77 1.69 1.69 1.65 1.48 1.33 1.35 1.37 1.29 1.21 1.16 1.18 1.25 1.24 1.11 1.03 0.82 0.63 0.57 0.53 0.47 0.44
0.61 0.77 1.09 1.39 1.54 1.82 2.10 2.23 2.37 2.63 2.89 2.94 3.10 3.19 3.15 2.90 2.64 2.46 2.37 2.17 2.06 1.97 1.83 1.74 1.74 1.65 1.45 1.32 1.39 1.44 1.42 1.40 1.40 1.34 1.44 1.35 1.10 0.92 0.74 0.62 0.58 0.56 0.54
0.51 0.61 0.73 1.00 1.23 1.46 1.86 2.16 2.35 2.52 2.72 3.03 3.02 2.91 2.78 2.60 2.34 2.32 2.39 2.38 2.27 2.15 1.99 1.93 1.91 1.79 1.64 1.49 1.47 1.51 1.58 1.62 1.60 1.55 1.43 1.33 1.15 1.10 0.94 0.71 0.63 0.60 0.55
0.56 0.57 0.61 0.75 0.97 1.18 1.56 1.91 2.17 2.48 2.72 2.84 2.84 2.87 2.67 2.49 2.45 2.38 2.39 2.30 2.20 2.16 2.11 2.04 2.08 1.98 1.82 1.75 1.74 1.71 1.74 1.75 1.72 1.65 1.56 1.50 1.34 1.20 1.15 0.93 0.74 0.72 0.66
0.58 0.57 0.59 0.68 0.85 0.98 1.22 1.61 1.89 2.04 2.34 2.64 2.66 2.64 2.62 2.58 2.54 2.36 2.27 2.28 2.23 2.15 2.09 2.13 2.15 2.13 2.04 1.92 1.88 1.87 1.90 1.91 1.87 1.82 1.68 1.59 1.51 1.35 1.33 1.21 0.97 0.92 0.85
0.51 0.52 0.57 0.66 0.79 0.92 1.05 1.24 1.50 1.64 1.83 2.11 2.28 2.30 2.38 2.47 2.41 2.29 2.10 2.05 2.03 2.01 1.97 1.97 2.08 2.15 2.11 2.08 2.04 2.02 1.97 1.99 1.99 1.96 1.88 1.76 1.62 1.52 1.55 1.56 1.34 1.15 0.97
0.52 0.50 0.50 0.58 0.68 0.78 0.92 1.04 1.18 1.34 1.53 1.72 1.86 2.04 2.16 2.31 2.33 2.29 2.07 1.90 1.82 1.82 1.95 1.92 1.85 1.92 2.01 2.04 2.04 2.01 1.95 1.93 1.90 1.85 1.83 1.82 1.68 1.63 1.68 1.75 1.85 1.74 1.40
0.53 0.50 0.48 0.49 0.60 0.68 0.77 0.88 1.01 1.14 1.27 1.45 1.61 1.77 1.89 1.97 2.06 2.14 2.12 1.97 1.83 1.76 1.77 1.72 1.68 1.64 1.69 1.83 1.93 1.89 1.85 1.84 1.83 1.78 1.75 1.78 1.72 1.68 1.70 1.81 2.00 2.21 2.01
0.52 0.47 0.48 0.51 0.58 0.60 0.65 0.76 0.92 0.98 1.06 1.20 1.34 1.44 1.58 1.75 1.85 1.91 1.90 1.87 1.83 1.75 1.68 1.58 1.48 1.44 1.47 1.54 1.65 1.69 1.67 1.67 1.64 1.64 1.63 1.61 1.60 1.64 1.66 1.71 1.79 1.97 2.07
0.54 0.53 0.54 0.60 0.66 0.62 0.64 0.72 0.82 0.93 1.02 1.09 1.20 1.24 1.24 1.33 1.52 1.67 1.73 1.74 1.77 1.74 1.64 1.54 1.45 1.39 1.33 1.33 1.38 1.40 1.48 1.54 1.51 1.52 1.52 1.46 1.41 1.47 1.50 1.52 1.57 1.65 1.78
0.50 0.55 0.61 0.61 0.63 0.67 0.69 0.73 0.77 0.86 0.98 1.05 1.12 1.20 1.19 1.16 1.24 1.36 1.50 1.61 1.70 1.67 1.66 1.58 1.46 1.36 1.31 1.27 1.26 1.25 1.28 1.33 1.37 1.37 1.40 1.38 1.33 1.34 1.37 1.41 1.38 1.37 1.41
0.47 0.48 0.54 0.59 0.60 0.65 0.73 0.77 0.82 0.84 0.89 0.96 1.00 1.04 1.07 1.05 1.07 1.13 1.26 1.35 1.47 1.50 1.51 1.55 1.48 1.34 1.27 1.22 1.20 1.16 1.17 1.20 1.19 1.23 1.30 1.33 1.35 1.35 1.33 1.33 1.30 1.27 1.29
0.45 0.44 0.49 0.53 0.57 0.62 0.67 0.66 0.76 0.80 0.84 0.87 0.94 0.98 0.97 0.99 1.02 1.09 1.13 1.19 1.26 1.34 1.35 1.38 1.44 1.46 1.39 1.30 1.24 1.21 1.17 1.18 1.16 1.16 1.23 1.27 1.27 1.22 1.18 1.20 1.18 1.20 1.25
0.41 0.44 0.46 0.49 0.52 0.51 0.50 0.52 0.59 0.68 0.72 0.78 0.88 0.94 0.97 1.03 1.13 1.15 1.10 1.09 1.13 1.21 1.26 1.27 1.31 1.36 1.39 1.38 1.33 1.27 1.24 1.25 1.26 1.21 1.19 1.21 1.27 1.22 1.16 1.14 1.14 1.16 1.24
0.36 0.37 0.40 0.45 0.48 0.47 0.46 0.46 0.49 0.54 0.56 0.62 0.72 0.81 0.89 1.00 1.13 1.19 1.15 1.10 1.06 1.13 1.23 1.23 1.26 1.31 1.34 1.53 1.54 1.39 1.32 1.31 1.25 1.19 1.10 1.08 1.15 1.15 1.18 1.18 1.16 1.22 1.32
0.33 0.31 0.33 0.38 0.39 0.41 0.43 0.44 0.45 0.49 0.52 0.53 0.58 0.69 0.85 0.93 1.01 1.11 1.14 1.12 1.11 1.20 1.31 1.34 1.36 1.41 1.50 1.58 1.43 1.38 1.25 1.23 1.17 1.09 1.03 0.98 0.96 1.02 0.96 1.02 1.09 1.12 1.23
0.29 0.28 0.30 0.32 0.32 0.34 0.36 0.37 0.39 0.44 0.52 0.56 0.61 0.69 0.79 0.89 1.01 1.09 1.15 1.18 1.19 1.27 1.36 1.41 1.42 1.46 1.49 1.51 1.39 1.33 1.17 1.12 1.05 0.98 0.92 0.91 0.88 0.90 0.98 1.05 1.11 1.03 0.96
0.28 0.27 0.28 0.29 0.27 0.29 0.32 0.33 0.37 0.42 0.49 0.55 0.61 0.65 0.73 0.84 0.97 1.09 1.18 1.23 1.26 1.30 1.35 1.34 1.30 1.25 1.28 1.32 1.22 1.20 1.09 1.09 1.03 0.96 0.92 0.92 0.88 0.98 1.14 1.18 1.19 1.04 0.88
0.31 0.31 0.28 0.27 0.26 0.29 0.31 0.33 0.38 0.44 0.51 0.54 0.59 0.62 0.69 0.78 0.89 1.01 1.12 1.19 1.22 1.22 1.20 1.19 1.13 1.08 1.08 1.18 1.11 1.10 1.07 1.07 1.00 0.95 0.92 1.00 0.98 1.08 1.20 1.14 1.14 1.06 0.88
0.32 0.36 0.36 0.35 0.36 0.39 0.40 0.40 0.43 0.49 0.52 0.54 0.60 0.63 0.68 0.75 0.84 0.90 0.94 0.99 1.01 1.01 0.98 0.95 0.93 0.91 0.94 1.01 0.98 0.99 1.00 1.01 1.02 1.01 0.93 0.92 1.11 1.20 1.24 1.15 0.97 0.98 1.05
0.35 0.39 0.43 0.44 0.45 0.46 0.47 0.48 0.51 0.55 0.54 0.55 0.60 0.65 0.68 0.67 0.69 0.73 0.78 0.77 0.78 0.80 0.81 0.81 0.80 0.82 0.86 0.89 0.92 0.97 1.03 1.07 1.01 0.96 0.88 0.92 1.12 1.13 1.09 1.03 1.04 1.14 1.08
0.39 0.40 0.41 0.42 0.42 0.48 0.53 0.56 0.56 0.56 0.54 0.56 0.57 0.59 0.61 0.61 0.63 0.64 0.67 0.70 0.70 0.71 0.74 0.75 0.75 0.76 0.76 0.80 0.90 0.92 1.00 1.06 0.99 0.95 1.00 1.05 1.06 0.99 0.94 0.98 1.02 1.01 0.95
0.42 0.41 0.39 0.39 0.41 0.44 0.49 0.52 0.50 0.49 0.48 0.51 0.50 0.50 0.49 0.53 0.55 0.57 0.62 0.67 0.69 0.67 0.66 0.68 0.69 0.69 0.69 0.67 0.72 0.81 0.88 0.95 0.96 0.99 1.01 0.98 0.94 0.91 0.92 0.98 0.95 0.88 0.93
0.43 0.41 0.41 0.41 0.43 0.42 0.44 0.47 0.46 0.44 0.45 0.46 0.44 0.42 0.42 0.47 0.51 0.53 0.57 0.63 0.67 0.72 0.71 0.67 0.65 0.68 0.68 0.69 0.82 0.87 0.84 0.91 0.96 0.98 0.88 0.83 0.83 0.84 0.83 0.81 0.83 0.86 0.92
0.43 0.40 0.39 0.41 0.42 0.40 0.42 0.43 0.45 0.46 0.46 0.46 0.45 0.43 0.40 0.44 0.50 0.54 0.57 0.64 0.68 0.74 0.77 0.77 0.72 0.67 0.71 0.76 0.82 0.85 0.90 0.96 0.99 0.93 0.84 0.79 0.77 0.77 0.78 0.77 0.78 0.82 0.88